Weather History for Mobridge, SD

Change the Weather History Date:

Tuesday, June 18, 2013

  Actual Average Record
Temperature  
Mean Temperature 66 °F 67 °F  
Max Temperature 82 °F 79 °F 109 °F (1933)
Min Temperature 50 °F 55 °F 41 °F (2004)
Degree Days  
Heating Degree Days 0 2  
Month to date heating degree days 68 60  
Since 1 June heating degree days 68 60  
Since 1 July heating degree days 8248 7944  
Cooling Degree Days 1 3  
Month to date cooling degree days 24 39  
Year to date cooling degree days 39 55  
Since 1 June cooling degree days 24 39  
Growing Degree Days 16 (Base 50)    
Moisture  
Dew Point 52 °F    
Average Humidity 63    
Maximum Humidity 96    
Minimum Humidity 30    
Precipitation  
Precipitation 0.00 in 0.11 in 3.45 in (2014)
Month to date precipitation 1.11 2.16  
Year to date precipitation 8.79 8.18  
Sea Level Pressure  
Sea Level Pressure 30.00 in    
Wind  
Wind Speed 5 mph (SE)    
Max Wind Speed 10 mph    
Max Gust Speed 18 mph    
Visibility 10 miles    
Events      
T = Trace of Precipitation, MM = Missing Value Source: NWS Daily Summary

Daily Weather History Graph

Daily Weather History Graph

Search for Another Location

Airport:

Trip Planner

Search our weather history database for the weather conditions in past years. The results will help you decide how hot, cold, wet, or windy it might be!

Date:

Astronomy

Jun. 18, 2013 Rise Set
Actual Time 5:52 AM CDT 9:33 PM CDT
Civil Twilight 5:14 AM CDT 10:11 PM CDT
Nautical Twilight 4:23 AM CDT 11:02 PM CDT
Astronomical Twilight 3:13 AM CDT 12:12 AM CDT
Moon 4:08 PM CDT (6/18) 2:14 AM CDT (6/18)
Length of Visible Light 16h 57m
Length of Day
15h 41m
Waxing Gibbous, 71% of the Moon is Illuminated
Jun 18
Waxing Gibbous
Jun 23
Full
Jun 29
Last Quarter
Jul 8
New
Jul 15
First Quarter

Hourly Weather History & Observations

Time (CDT) Temp. Dew Point Humidity Pressure Visibility Wind Dir Wind Speed Gust Speed Precip Events Conditions
12:52 AM 55.0 °F 48.9 °F 80% 30.06 in 10.0 mi ENE 3.5 mph - N/A   Clear
1:52 AM 51.1 °F 48.0 °F 89% 30.06 in 10.0 mi Calm Calm - N/A   Clear
2:52 AM 52.0 °F 48.0 °F 86% 30.06 in 10.0 mi Calm Calm - N/A   Partly Cloudy
3:52 AM 51.1 °F 48.0 °F 89% 30.05 in 10.0 mi NNE 8.1 mph - N/A   Clear
4:52 AM 50.0 °F 48.0 °F 93% 30.04 in 10.0 mi NNE 6.9 mph - N/A   Clear
5:52 AM 52.0 °F 50.0 °F 93% 30.06 in 10.0 mi NE 5.8 mph - N/A   Clear
6:52 AM 53.1 °F 51.1 °F 93% 30.08 in 10.0 mi Calm Calm - N/A   Partly Cloudy
7:52 AM 57.9 °F 54.0 °F 87% 30.07 in 10.0 mi SW 3.5 mph - N/A   Clear
8:52 AM 61.0 °F 55.0 °F 81% 30.07 in 10.0 mi Calm Calm - N/A   Scattered Clouds
9:52 AM 64.9 °F 55.0 °F 70% 30.06 in 10.0 mi Variable 3.5 mph - N/A   Partly Cloudy
10:52 AM 71.1 °F 54.0 °F 55% 30.04 in - Calm Calm - N/A   Clear
11:52 AM 75.0 °F 50.0 °F 41% 30.03 in 10.0 mi Variable 5.8 mph - N/A   Clear
12:52 PM 73.9 °F 52.0 °F 46% 30.01 in 10.0 mi ESE 4.6 mph - N/A   Clear
1:52 PM 78.1 °F 54.0 °F 43% 30.00 in 10.0 mi SSE 9.2 mph - N/A   Clear
2:52 PM 79.0 °F 54.0 °F 42% 29.99 in 10.0 mi South 8.1 mph - N/A   Clear
3:52 PM 79.0 °F 53.1 °F 40% 29.97 in 10.0 mi SE 5.8 mph - N/A   Clear
4:52 PM 80.1 °F 52.0 °F 38% 29.95 in 10.0 mi SSE 4.6 mph - N/A   Clear
5:52 PM 81.0 °F 50.0 °F 34% 29.93 in 10.0 mi SSE 6.9 mph - N/A   Clear
6:52 PM 81.0 °F 46.9 °F 30% 29.90 in 10.0 mi SE 5.8 mph - N/A   Clear
7:52 PM 80.1 °F 52.0 °F 38% 29.91 in 10.0 mi South 5.8 mph - N/A   Clear
8:52 PM 73.9 °F 60.1 °F 62% 29.89 in 10.0 mi ESE 6.9 mph - N/A   Clear
9:52 PM 69.1 °F 57.9 °F 68% 29.89 in 10.0 mi ESE 10.4 mph - N/A   Clear
10:52 PM 66.0 °F 57.0 °F 73% 29.90 in 10.0 mi SE 8.1 mph - N/A   Clear
11:52 PM 64.9 °F 57.0 °F 75% 29.90 in 10.0 mi SE 6.9 mph - N/A   Clear